RH
42 43 42 42 44 46 49 52 58 63 57 50 57 57 55 55 53 48 46 41 37 36 36 34 33 33 33 29 29 40 51 46
45 42 45 47 47 47 49 52 53 51 54 54 52 56 56 55 54 53 49 44 41 39 40 39 36 36 36 32 30 34 47 48
45 46 47 49 50 50 53 53 54 53 55 55 55 56 55 54 55 55 53 52 51 49 44 43 40 39 39 37 38 43 41 41
47 49 49 55 58 56 56 58 58 61 59 57 57 57 57 56 57 57 55 53 52 53 50 47 45 44 43 41 43 43 44 42
46 47 49 54 57 58 57 59 57 57 58 61 57 58 57 57 58 57 55 54 55 52 52 51 57 52 52 51 43 44 47 46
43 44 45 49 52 53 53 55 57 58 59 56 54 59 59 62 63 61 58 58 53 52 51 61 58 57 55 48 46 48 50 44
38 43 43 44 45 47 47 50 57 60 56 57 56 58 58 61 63 65 64 60 56 53 53 56 56 54 53 48 49 52 51 49
39 39 40 44 45 48 49 51 50 53 59 59 59 62 63 65 62 64 64 62 56 55 56 56 56 56 55 49 48 51 55 53
44 46 47 49 50 50 51 49 52 55 56 57 57 60 63 63 61 59 62 60 54 55 56 58 60 61 58 51 50 53 58 58
51 49 52 52 51 52 52 51 50 53 55 54 52 53 58 59 57 59 60 56 54 54 54 60 64 66 62 58 55 59 61 64
55 51 54 56 57 57 56 53 52 53 55 55 53 53 53 52 51 53 57 57 53 53 54 62 65 68 62 62 63 61 60 64
55 54 54 58 60 61 60 60 57 58 60 59 60 58 55 55 56 60 59 53 52 55 58 63 68 69 65 68 67 67 66 67
53 48 49 51 53 56 60 63 65 62 60 62 61 59 59 56 57 62 63 58 59 58 61 69 74 75 68 72 71 71 71 69
45 41 41 46 49 49 49 52 54 56 56 57 61 64 63 60 59 59 64 64 66 66 66 72 79 74 72 72 71 73 73 70
34 34 35 38 43 45 47 47 55 60 60 60 63 67 68 67 64 65 71 73 73 74 73 76 78 72 71 69 75 73 75 73
35 33 35 38 39 40 42 46 49 54 65 66 65 70 75 76 75 79 79 83 77 78 77 82 80 74 74 75 79 79 74 74
31 30 30 31 33 36 41 46 46 50 53 63 64 72 81 91 82 86 89 91 89 85 84 83 80 77 79 80 79 77 74 70
35 34 32 31 31 33 35 38 42 47 54 60 67 66 89 82 87 94 93 92 92 89 85 86 85 85 84 84 77 76 71 65
37 34 33 31 31 31 31 34 40 46 52 61 64 73 76 80 90 88 95 94 97 94 92 92 87 88 86 83 75 74 72 67
47 40 37 34 34 35 37 41 44 50 60 69 68 73 84 86 94 98 95 98 97 95 94 93 88 85 86 83 79 72 72 66